Location: ?ernice
(48.8383°N, 14.3803°E)
Time: 21:37:00
(UTC+00:00)

Meteor 1-28 Rocket - Pass Details

Date: 23 May 2024
Orbit: 474 x 489 km, 97.5° (Epoch: 20 June)

Event Time Altitude Azimuth Distance (km) Brightness Sun altitude
Exits shadow 02:01:08 - 189° (S) 1,714 5.3 -9.6°
Reaches altitude 10° 02:01:16 10° 190° (S) 1,657 5.3 -9.6°
Maximum altitude 02:04:39 40° 262° (W) 725 3.6 -9.2°
Drops below altitude 10° 02:08:02 10° 333° (NNW) 1,663 6.0 -8.8°
Sets 02:10:11 0° 341° (NNW) 2,545 7.1 -8.6°
